EW1423 Weather Reports


time (UTC)temp
C
wind
direction
speed
KPH
gust
KPH
rain 1hr
cm
rain 24hr
cm
rain mn
cm
humidity
%
barometer
mb
20260831231803 14 66 0.0 0.0 0.00 0.51 0.00 93 1021.1
20260831231304 14 66 0.0 0.0 0.00 0.51 0.00 93 1021.1
20260831230804 14 66 0.0 0.0 0.00 0.51 0.00 93 1021.1
20260831230303 15 66 0.0 0.0 0.00 0.51 0.00 92 1021.1
20260831225306 14 66 0.0 0.0 0.00 0.51 0.00 91 1021.1
20260831224803 15 66 0.0 0.0 0.00 0.51 0.00 91 1021.1
20260831224304 15 66 0.0 0.0 0.00 0.51 0.00 90 1021.1
20260831223804 15 66 0.0 0.0 0.00 0.51 0.00 91 1020.8
20260831222803 15 66 0.0 0.0 0.00 0.51 0.00 90 1020.8
20260831222306 15 66 0.0 0.0 0.00 0.51 0.00 90 1020.8
20260831221804 15 66 0.0 0.0 0.00 0.51 0.00 90 1020.8
20260831221304 15 66 0.0 0.0 0.00 0.51 0.00 89 1020.8
20260831220810 15 66 0.0 0.0 0.00 0.51 0.00 88 1020.8
20260831220304 15 66 0.0 0.0 0.00 0.51 0.00 88 1020.8
20260831215804 15 66 0.0 0.0 0.00 0.51 0.51 88 1020.8
20260831215306 15 66 0.0 0.0 0.00 0.51 0.51 87 1020.8
20260831214804 15 66 0.0 0.0 0.00 0.51 0.51 88 1020.5
20260831214304 15 66 0.0 0.0 0.00 0.51 0.51 89 1020.5
20260831213804 15 66 0.0 0.0 0.00 0.51 0.51 89 1020.5
20260831212306 15 66 0.0 0.0 0.00 0.51 0.51 88 1020.5
20260831211804 15 66 0.0 0.0 0.00 0.51 0.51 88 1020.5
20260831211304 15 66 0.0 0.0 0.00 0.51 0.51 88 1020.5
20260831210804 15 66 0.0 0.0 0.00 0.51 0.51 88 1020.5
20260831210303 15 66 0.0 0.0 0.00 0.51 0.51 88 1020.5
20260831205305 15 66 0.0 0.0 0.00 0.51 0.51 88 1020.4
20260831204804 15 66 0.0 0.0 0.00 0.51 0.51 87 1019.9
20260831204303 15 66 0.0 0.0 0.00 0.51 0.51 87 1019.9
20260831203803 15 66 0.0 0.0 0.00 0.51 0.51 86 1019.9
20260831203303 16 66 0.0 0.0 0.00 0.51 0.51 86 1019.9
20260831202803 16 66 0.0 0.0 0.00 0.51 0.51 85 1019.9
20260831202306 16 66 0.0 0.0 0.00 0.51 0.51 84 1019.9
20260831201804 16 66 0.0 0.0 0.00 0.51 0.51 82 1019.9
20260831201303 17 66 0.0 0.0 0.00 0.51 0.51 80 1019.9
20260831200803 17 66 0.0 0.0 0.00 0.51 0.51 78 1019.9
20260831195803 17 66 0.0 0.0 0.00 0.51 0.51 77 1019.9
20260831195306 17 66 0.0 0.0 0.00 0.51 0.51 76 1019.8
20260831194803 18 306 0.0 0.0 0.00 0.51 0.51 75 1019.8
20260831194303 18 226 0.0 0.0 0.00 0.51 0.51 75 1019.8
20260831193803 18 226 0.0 0.0 0.00 0.51 0.51 75 1019.8
20260831193304 18 226 0.0 0.0 0.00 0.51 0.51 74 1019.7
20260831192803 18 226 0.0 1.6 0.00 0.51 0.51 73 1019.7
20260831192305 18 177 1.6 8.0 0.00 0.51 0.51 72 1019.7
20260831191304 18 269 0.0 8.0 0.00 0.51 0.51 73 1019.7
20260831190804 19 320 3.2 14.5 0.00 0.51 0.51 72 1019.7
20260831190304 19 268 1.6 11.3 0.00 0.51 0.51 72 1019.7
20260831185306 19 257 3.2 14.5 0.00 0.51 0.51 73 1019.5
20260831184804 19 221 0.0 3.2 0.00 0.51 0.51 73 1018.5
20260831183804 19 327 0.0 8.0 0.00 0.51 0.51 73 1018.5
20260831183303 19 270 1.6 8.0 0.00 0.51 0.51 73 1018.5
20260831182804 19 0 0.0 4.8 0.00 0.51 0.51 73 1018.5
20260831182305 19 255 1.6 11.3 0.00 0.51 0.51 74 1018.5
20260831181804 20 313 1.6 4.8 0.00 0.51 0.51 74 1018.5
20260831180804 20 269 0.0 1.6 0.00 0.51 0.51 73 1018.5
20260831180304 19 223 0.0 8.0 0.00 0.51 0.51 74 1018.5
20260831175805 19 296 0.0 0.0 0.00 0.51 0.51 77 1018.5
20260831175306 20 296 0.0 0.0 0.00 0.51 0.51 76 1018.5
20260831174804 20 305 0.0 8.0 0.00 0.51 0.51 76 1018.7
20260831174303 20 257 1.6 9.7 0.00 0.51 0.51 74 1018.7
20260831173803 20 292 1.6 9.7 0.00 0.51 0.51 73 1018.7
20260831173304 20 294 1.6 9.7 0.00 0.51 0.51 74 1017.9
20260831172804 20 301 0.0 1.6 0.00 0.51 0.51 74 1017.9
20260831172306 20 280 0.0 3.2 0.00 0.51 0.51 73 1017.9
20260831171804 20 271 0.0 1.6 0.00 0.51 0.51 71 1017.9
20260831171304 20 284 0.0 3.2 0.00 0.51 0.51 71 1017.9
20260831170803 20 220 0.0 0.0 0.00 0.51 0.51 72 1017.9
20260831165804 20 281 0.0 0.0 0.00 0.51 0.51 71 1017.7
20260831165305 20 309 0.0 3.2 0.00 0.51 0.51 71 1017.7
20260831164803 20 258 0.0 3.2 0.00 0.51 0.51 71 1017.4
20260831164304 20 303 1.6 8.0 0.00 0.51 0.51 70 1017.4
20260831163803 21 295 0.0 9.7 0.00 0.51 0.51 69 1017.4
20260831163304 21 273 1.6 12.9 0.00 0.51 0.51 67 1017.4
20260831162804 21 333 3.2 14.5 0.00 0.51 0.51 64 1017.4
20260831161804 23 301 0.0 4.8 0.00 0.51 0.51 59 1017.4
20260831160303 23 290 0.0 20.9 0.00 0.51 0.51 61 1017.2
20260831155306 23 256 3.2 11.3 0.00 0.51 0.51 58 1017.2
20260831154804 25 272 3.2 8.0 0.00 0.51 0.51 56 1017.2
20260831154303 25 287 0.0 8.0 0.00 0.51 0.51 55 1017.2
20260831153803 25 284 3.2 11.3 0.00 0.51 0.51 55 1017.2
20260831152804 25 334 1.6 11.3 0.00 0.51 0.51 56 1016.7
20260831152306 25 285 0.0 8.0 0.00 0.51 0.51 55 1016.7
20260831151803 24 279 0.0 8.0 0.00 0.51 0.51 56 1016.7
20260831150803 23 275 1.6 9.7 0.00 0.51 0.51 58 1016.7
20260831150304 23 239 1.6 11.3 0.00 0.51 0.51 57 1016.7
20260831145803 23 258 3.2 14.5 0.00 0.51 0.51 57 1016.7
20260831145306 23 308 1.6 9.7 0.00 0.51 0.51 58 1016.7
20260831144804 23 302 1.6 11.3 0.00 0.51 0.51 56 1016.7
20260831144303 24 192 3.2 16.1 0.00 0.51 0.51 54 1016.7
20260831143804 25 336 1.6 11.3 0.00 0.51 0.51 53 1016.7
20260831143303 25 305 1.6 8.0 0.00 0.51 0.51 54 1016.9
20260831142803 25 247 1.6 16.1 0.00 0.51 0.51 53 1016.9
20260831142306 25 267 1.6 19.3 0.00 0.51 0.51 52 1016.9
20260831141804 25 267 0.0 4.8 0.00 0.51 0.51 52 1016.9
20260831141304 24 291 0.0 8.0 0.00 0.51 0.51 55 1016.9
20260831140803 24 106 1.6 4.8 0.00 0.51 0.51 54 1016.9
20260831140304 24 228 1.6 8.0 0.00 0.51 0.51 52 1016.9
20260831135804 25 333 1.6 12.9 0.00 0.51 0.51 53 1016.9
20260831134803 23 222 3.2 8.0 0.00 0.51 0.51 54 1017.0
20260831133803 24 322 1.6 11.3 0.00 0.51 0.51 54 1017.0
20260831133304 25 260 1.6 9.7 0.00 0.51 0.51 53 1017.0
20260831132803 25 299 3.2 14.5 0.00 0.51 0.51 51 1017.0
20260831132306 25 285 3.2 11.3 0.00 0.51 0.51 52 1017.0
20260831131804 25 287 3.2 9.7 0.00 0.51 0.51 52 1017.0
20260831131305 25 226 1.6 8.0 0.00 0.51 0.51 52 1017.2
20260831130803 25 274 0.0 4.8 0.00 0.51 0.51 51 1017.2
20260831130304 26 240 3.2 12.9 0.00 0.51 0.51 51 1017.4
20260831125306 25 284 4.8 12.9 0.00 0.51 0.51 51 1017.4
20260831124803 25 317 3.2 14.5 0.00 0.51 0.51 54 1017.4
20260831124303 25 126 1.6 8.0 0.00 0.51 0.51 54 1017.4
20260831123804 25 353 1.6 16.1 0.00 0.51 0.51 53 1017.4
20260831123303 25 119 4.8 16.1 0.00 0.51 0.51 52 1017.4
20260831122803 25 43 3.2 19.3 0.00 0.51 0.51 52 1017.4
20260831122306 25 313 1.6 9.7 0.00 0.51 0.51 53 1017.4
20260831120804 24 319 3.2 19.3 0.00 0.51 0.51 58 1017.4
20260831120303 24 268 3.2 14.5 0.00 0.51 0.51 58 1017.4
20260831115803 23 200 0.0 4.8 0.00 0.51 0.51 61 1017.4
20260831115306 23 264 1.6 9.7 0.00 0.51 0.51 59 1017.4
20260831114804 23 328 1.6 16.1 0.00 0.51 0.51 58 1017.4
20260831114303 24 88 1.6 8.0 0.00 0.51 0.51 56 1017.4
20260831113803 25 307 3.2 19.3 0.00 0.51 0.51 56 1017.4
20260831113304 24 286 1.6 9.7 0.00 0.51 0.51 57 1017.5
20260831112804 24 321 3.2 16.1 0.00 0.51 0.51 57 1017.5
20260831112307 23 314 4.8 14.5 0.00 0.51 0.51 59 1017.5
20260831111803 23 246 0.0 11.3 0.00 0.51 0.51 60 1017.5
20260831111303 23 276 3.2 20.9 0.00 0.51 0.51 58 1017.5
20260831110803 25 275 3.2 12.9 0.00 0.51 0.51 57 1017.5
20260831110303 25 256 4.8 16.1 0.00 0.51 0.51 55 1017.5
20260831105306 23 333 1.6 20.9 0.00 0.51 0.51 60 1017.7
20260831104805 23 342 3.2 16.1 0.00 0.51 0.51 60 1017.7
20260831104304 24 298 1.6 11.3 0.00 0.51 0.51 59 1017.6
20260831103304 24 297 4.8 14.5 0.00 0.51 0.51 58 1017.6
20260831102804 25 326 3.2 8.0 0.00 0.51 0.51 61 1017.6
20260831102306 24 271 1.6 12.9 0.00 0.51 0.51 59 1017.6
20260831101804 24 332 1.6 11.3 0.00 0.51 0.51 62 1017.6
20260831101303 25 284 3.2 16.1 0.00 0.51 0.51 59 1017.6
20260831100804 25 294 1.6 9.7 0.00 0.51 0.51 59 1017.6
20260831100303 24 119 0.0 9.7 0.00 0.51 0.51 65 1017.6
20260831095804 23 8 1.6 14.5 0.00 0.51 0.51 61 1017.7
20260831095306 23 283 1.6 8.0 0.00 0.51 0.51 63 1017.7
20260831094803 23 304 1.6 8.0 0.00 0.51 0.51 63 1017.7
20260831094304 22 289 1.6 8.0 0.00 0.51 0.51 70 1017.7
20260831093803 21 228 0.0 4.8 0.00 0.51 0.51 69 1017.7
20260831093303 21 354 1.6 8.0 0.00 0.51 0.51 70 1017.6
20260831092804 22 288 3.2 8.0 0.00 0.51 0.51 68 1017.6
20260831092306 22 274 1.6 11.3 0.00 0.51 0.51 66 1017.6
20260831091803 23 340 0.0 8.0 0.00 0.51 0.51 66 1017.6
20260831091304 22 35 0.0 4.8 0.00 0.51 0.51 68 1017.6
20260831090804 22 0 1.6 12.9 0.00 0.51 0.51 70 1017.6
20260831090304 22 309 1.6 8.0 0.00 0.51 0.51 70 1017.6
20260831085803 21 239 0.0 4.8 0.00 0.51 0.51 70 1017.6
20260831085306 21 201 0.0 3.2 0.00 0.51 0.51 72 1017.5
20260831084804 21 336 0.0 4.8 0.00 0.51 0.51 73 1017.5
20260831084303 21 319 0.0 4.8 0.00 0.51 0.51 75 1017.5
20260831083804 21 280 1.6 8.0 0.00 0.51 0.51 76 1017.5
20260831083303 21 282 1.6 9.7 0.00 0.51 0.51 72 1017.5
20260831082803 21 324 1.6 8.0 0.00 0.51 0.51 74 1017.5
20260831082306 21 289 3.2 9.7 0.00 0.51 0.51 75 1017.4
20260831081804 20 334 0.0 14.5 0.00 0.51 0.51 75 1017.4
20260831080804 21 310 0.0 14.5 0.00 0.51 0.51 75 1016.7
20260831080304 21 315 1.6 11.3 0.00 0.51 0.51 75 1016.7
20260831075804 20 295 1.6 9.7 0.00 0.51 0.51 74 1016.7
20260831075306 20 313 3.2 8.0 0.00 0.51 0.51 79 1016.7
20260831074804 20 286 1.6 12.9 0.00 0.51 0.51 77 1016.7
20260831073803 20 275 1.6 8.0 0.00 0.51 0.51 80 1016.7
20260831071803 19 294 0.0 3.2 0.00 0.51 0.51 85 1016.7
20260831071305 19 310 0.0 1.6 0.00 0.51 0.51 89 1016.7
20260831070803 19 270 0.0 1.6 0.00 0.51 0.51 86 1016.7
20260831070304 18 318 0.0 1.6 0.00 0.51 0.51 89 1016.7
20260831065804 18 288 0.0 1.6 0.00 0.51 0.51 91 1016.7
20260831064804 18 298 0.0 4.8 0.00 0.51 0.51 92 1016.7
20260831064303 18 250 0.0 0.0 0.00 0.51 0.51 93 1016.7
20260831063803 18 248 0.0 1.6 0.00 0.51 0.51 94 1016.7
20260831063304 17 302 0.0 1.6 0.00 0.51 0.51 95 1016.7
20260831062804 17 129 0.0 0.0 0.00 0.51 0.51 95 1016.7
20260831062305 17 140 0.0 0.0 0.00 0.51 0.51 95 1016.7
20260831061804 17 175 0.0 0.0 0.00 0.51 0.51 97 1016.7
20260831060804 16 175 0.0 0.0 0.00 0.51 0.51 100 1016.7
20260831060303 16 250 0.0 0.0 0.00 0.51 0.51 100 1016.7
20260831055804 16 250 0.0 0.0 0.00 0.51 0.51 100 1016.7
20260831055306 16 250 0.0 0.0 0.00 0.51 0.51 100 1016.7
20260831054803 16 250 0.0 0.0 0.00 0.51 0.51 100 1016.7
20260831054304 16 250 0.0 0.0 0.00 0.51 0.51 100 1016.7
20260831053804 16 250 0.0 0.0 0.00 0.51 0.51 100 1016.7
20260831053303 16 250 0.0 0.0 0.00 0.51 0.51 100 1016.7
20260831052804 16 250 0.0 0.0 0.00 0.51 0.51 100 1016.4
20260831052306 16 250 0.0 0.0 0.00 0.51 0.51 99 1016.4
20260831051804 16 250 0.0 0.0 0.00 0.51 0.51 98 1016.4
20260831051304 16 250 0.0 0.0 0.00 0.51 0.51 98 1016.4
20260831050804 16 250 0.0 0.0 0.00 0.51 0.51 98 1016.4
20260831050303 16 204 0.0 0.0 0.00 0.51 0.51 98 1016.4
20260831045803 16 204 0.0 8.0 0.00 0.51 0.51 98 1016.2
20260831045306 16 260 0.0 0.0 0.00 0.51 0.51 98 1016.2
20260831044804 16 260 0.0 0.0 0.00 0.51 0.51 98 1016.2
20260831044304 16 260 0.0 1.6 0.00 0.51 0.51 98 1016.2
20260831043804 16 344 0.0 0.0 0.00 0.51 0.51 98 1016.2
20260831043303 16 344 0.0 0.0 0.00 0.51 0.51 98 1016.2
20260831042803 17 344 0.0 0.0 0.00 0.51 0.51 99 1016.2
20260831042307 17 85 0.0 0.0 0.00 0.51 0.51 99 1016.2
20260831041304 17 98 0.0 0.0 0.00 0.51 0.51 100 1016.2
20260831040804 17 97 0.0 0.0 0.00 0.51 0.51 100 1016.2
20260831040303 16 97 0.0 0.0 0.00 0.51 0.51 100 1016.0
20260831035804 16 97 0.0 0.0 0.00 0.51 0.51 100 1015.7
20260831035306 16 97 0.0 0.0 0.00 0.51 0.51 100 1015.7
20260831034804 16 97 0.0 0.0 0.00 0.51 0.51 100 1015.7
20260831034304 16 97 0.0 0.0 0.00 0.51 0.51 100 1015.7
20260831032804 16 97 0.0 0.0 0.00 0.51 0.51 100 1015.6
20260831031803 16 97 0.0 0.0 0.00 0.51 0.51 100 1015.5
20260831025803 16 97 0.0 0.0 0.03 0.51 0.51 100 1015.5
20260831025306 16 97 0.0 0.0 0.03 0.51 0.51 100 1015.3
20260831024804 16 98 0.0 0.0 0.03 0.51 0.51 100 1015.3
20260831024304 16 98 0.0 0.0 0.03 0.51 0.51 100 1015.3
20260831023804 16 98 0.0 0.0 0.03 0.51 0.51 100 1015.3
20260831023303 16 98 0.0 0.0 0.03 0.51 0.51 100 1015.4
20260831022306 16 98 0.0 0.0 0.03 0.51 0.51 100 1015.4
20260831021804 16 98 0.0 0.0 0.03 0.51 0.51 100 1015.4
20260831021303 16 98 0.0 0.0 0.03 0.51 0.51 100 1015.2
20260831020804 16 98 0.0 0.0 0.05 0.51 0.51 100 1015.1
20260831020304 16 98 0.0 0.0 0.03 0.48 0.48 99 1014.9
20260831015804 16 98 0.0 0.0 0.03 0.48 0.48 99 1014.9
20260831015305 16 98 0.0 0.0 0.03 0.48 0.48 99 1014.9
20260831014804 16 97 0.0 0.0 0.03 0.48 0.48 99 1014.9
20260831014304 16 98 0.0 0.0 0.05 0.48 0.48 99 1015.4
20260831013804 17 101 0.0 0.0 0.05 0.48 0.48 99 1015.4
20260831012803 17 189 0.0 0.0 0.15 0.48 0.48 98 1015.4
20260831012306 17 150 0.0 0.0 0.15 0.48 0.48 98 1015.4
20260831011803 17 165 0.0 0.0 0.23 0.48 0.48 98 1015.5
20260831011304 17 113 0.0 3.2 0.46 0.48 0.48 98 1015.5
20260831010804 17 69 0.0 1.6 0.46 0.46 0.46 98 1015.1
20260831010304 17 105 0.0 1.6 0.46 0.46 0.46 98 1015.1
20260831005804 17 115 0.0 1.6 0.46 0.46 0.46 98 1015.1
20260831005306 17 146 0.0 1.6 0.46 0.46 0.46 98 1015.1
20260831004804 17 355 0.0 0.0 0.46 0.46 0.46 98 1015.1
20260831004303 17 266 0.0 1.6 0.43 0.43 0.43 98 1015.1
20260831003303 17 354 0.0 4.8 0.38 0.38 0.38 97 1015.1
20260831002804 17 261 1.6 8.0 0.33 0.33 0.33 97 1015.1
20260831001803 17 333 1.6 8.0 0.23 0.23 0.23 97 1015.1
20260831001304 16 308 1.6 14.5 0.03 0.03 0.03 94 1015.1
20260831000804 16 260 0.0 0.0 0.00 0.00 0.00 95 1013.6
20260831000304 15 260 0.0 0.0 0.00 0.00 0.00 96 1013.6
20260830235306 15 260 0.0 0.0 0.00 0.00 0.00 96 1013.7
20260830234804 15 260 0.0 0.0 0.00 0.00 0.00 96 1013.7
20260830234305 15 260 0.0 0.0 0.00 0.00 0.00 95 1013.7
20260830233804 15 260 0.0 0.0 0.00 0.00 0.00 96 1013.7
20260830233304 15 260 0.0 0.0 0.00 0.00 0.00 95 1013.9
20260830232803 15 260 0.0 0.0 0.00 0.00 0.00 95 1013.9
20260830232306 15 260 0.0 0.0 0.00 0.00 0.00 95 1013.9